Location: Boston
(42.3580°N, 71.0600°W)
Time: 19:23:04
(UTC-04:00)

Tiangong 2 - Pass Details

Date: 08 October 2017
Orbit: 388 x 391 km, 42.8° (Epoch: 20 October)

Event Time Altitude Azimuth Distance (km) Brightness Sun altitude
Exits shadow 05:50:53 - 218° (SW) 1,472 3.6 -11.6°
Reaches altitude 10° 05:51:02 10° 217° (SW) 1,416 3.6 -11.6°
Maximum altitude 05:53:52 30° 154° (SSE) 737 2.7 -11.1°
Drops below altitude 10° 05:56:44 10° 91° (E) 1,423 5.6 -10.5°
Sets 05:58:57 0° 80° (E) 2,281 7.1 -10.1°
